Weather in Sterlitamak

Russia / Republic of Bashkortostan     53°37′49″N   55°55′50″E
temp.,
°C
wind,
m/s
gust,
m/s
humid.,
%
clouds,
%
prec.,
mm/h
press.,
hPa
HPBL,
m
28 january, thu
thu2823:00−10ssw498930 0.0 1031171
02:00−9ssw5119079 0.0 1031226
05:00−8s5158889 0.0 1029379
08:00−9ssw5138796 0.0 1029289
11:00−8s6158596 0.0 1028394
14:00−5ssw6138195 0.0 1027473
17:00−6ssw4128597 0.0 1026329
20:00−8s3586100 0.0 102699
29 january, fri
fri2923:00−8ssw3483100 0.0 102566
02:00−9s3381100 0.0 102453
05:00−9s2378100 0.0 102338
08:00−9s2376100 0.0 102232
11:00−5s2380100 0.0 102174
14:00−1ssw2681100 0.0 1019215
17:00−2s2385100 0.0 101853
20:00−2sse3784100 0.1 1017170
30 january, sat
sat3023:00−5s4878100 0.1 1016178
02:00−4s41196100 0.8 1015505
05:00−4s41196100 2.1 1014599
08:00−5s51096100 1.4 1013542
11:00−4s51095100 2.3 1013536
14:00−3s5992100 0.3 1013522
17:00−3ssw6993100 0.3 1014456
20:00−3s599596 0.0 1015425
31 january, sun
sun3123:00−3s7129398 0.0 1015546
02:00−3ssw71293100 0.1 1016480
05:00−6ssw41095100 0.1 1017291
08:00−6s41095100 0.1 1018218
11:00−6s499599 0.1 1019238
14:00−2s5895100 0.0 1019319
17:00−3ssw4109396 0.0 1020298
20:00−7s349512 0.0 102058
1 february, mon
mon123:00−6s349118 0.0 101951
02:00−5sse4138928 0.0 1017295
05:00−4s8188149 0.0 1017649
08:00−5s91691100 0.1 1016469
11:00−2ssw81693100 0.3 1016679
14:000sw51196100 1.2 1018853
17:00−3sw5118586 1.3 1020418
20:00−8sw349164 0.0 102362